Location: Unspecified
(0.0000°N, 0.0000°E)
Time: 12:44:11
(UTC+00:00)

Tiangong 2 - Pass Details

Date: 11 December 2017
Orbit: 386 x 390 km, 42.8° (Epoch: 16 December)

Event Time Altitude Azimuth Distance (km) Brightness Sun altitude
Rises 19:53:34 0° 227° (SW) 2,258 6.1 -27.4°
Reaches altitude 10° 19:55:39 10° 229° (SW) 1,403 4.8 -27.9°
Enters shadow 19:56:27 17° 230° (SW) 1,080 4.1 -28.0°
